Regional Weather Roundup
Issued by NWS

Home | Current Version | Previous Version | Graphics & Text | Print | Product List | Glossary On
Versions: 1 2 3 4 5 6 7 8 9 10 11 12 13 14 15 16 17 18 19 20 21 22 23 24 25 26 27 28 29 30 31 32 33 34 35 36 37 38 39 40 41 42 43 44 45 46 47 48 49 50
000
ASUS45 KABQ 210210
RWRNM
NEW MEXICO REGIONAL WEATHER ROUNDUP
NATIONAL WEATHER SERVICE ALBUQUERQUE NM
800 PM MDT FRI OCT 20 2017

NOTE: "FAIR" MEANS FEW OR NO CLOUDS BELOW 12,000 FEET AGL WITH NO
       SIGNIFICANT WEATHER OR OBSTRUCTIONS TO VISION.

      THIS PRODUCT IS RELEASED AS TWO VERSIONS.  ONE VERSION NEAR
      THE TOP OF THE HOUR CONTAINING PRELIMINARY DATA FROM ALBUQUERQUE
      AND OTHER STATIONS.  A FINAL VERSION WITH ADDITIONAL DATA IS
      ISSUED ABOUT 10 MINUTES AFTER THE HOUR.

NMZ501-503-504-510>518-210300-
NORTHWEST PLATEAU/NORTHCENTRAL MOUNTAINS

CITY           SKY/WX    TMP DP  RH WIND       PRES   REMARKS
FARMINGTON     FAIR      66  28  24 SW20G29   29.72R
LOS ALAMOS     FAIR      58  38  48 SW9       29.89S
SANTA FE       FAIR      55  40  56 SE9       29.85F
TAOS           FAIR      54  33  45 S10       29.89F
ANGEL FIRE     FAIR      51  31  46 S12       29.94S

$$
NMZ402-403-502-505>509-210300-
WESTCENTRAL MOUNTAINS/SOUTHWEST MOUNTAINS

CITY           SKY/WX    TMP DP  RH WIND       PRES   REMARKS
GALLUP         FAIR      62  30  29 SW20      29.86R
GRANTS         FAIR      59  28  31 SE3       29.89R
SILVER CITY    FAIR      67  32  27 W8        29.94R

$$
NMZ407-409-411-412-210300-
SOUTHERN DESERTS

CITY           SKY/WX    TMP DP  RH WIND       PRES   REMARKS
DEMING         FAIR      71  35  26 SW8       29.87R
LAS CRUCES     FAIR      71  40  32 SW10      29.89R
HOLLOMAN AFB   FAIR      68  46  45 SE12      29.87R
ALAMOGORDO     FAIR      68  45  42 S8        29.87S
T OR C         FAIR      71  35  26 SW9       29.86R

$$
NMZ519>523-210300-
CENTRAL VALLEYS/CENTRAL HIGHLANDS

CITY           SKY/WX    TMP DP  RH WIND       PRES   REMARKS
ALBUQUERQUE    FAIR      66  42  41 S17       29.81S
DOUBLE EAGLE   PTCLDY    55  28  35 S10       29.83F
MORIARTY ARPT  FAIR      56  44  63 S8        29.88S
CLINES CORNERS FAIR      57  40  52 SW24G33   29.92S
BELEN          FAIR      68  29  23 SW16      29.81F
SOCORRO        FAIR      70  28  21 SW10      29.84R

$$
NMZ524>526-539-540-210300-
SOUTHCENTRAL MOUNTAINS

CITY           SKY/WX    TMP DP  RH WIND       PRES   REMARKS
RUIDOSO        FAIR      59  37  44 SW20      30.00S

$$
NMZ527>531-210300-
NORTHEAST HIGHLANDS/NORTHEAST PLAINS

CITY           SKY/WX    TMP DP  RH WIND       PRES   REMARKS
LAS VEGAS      FAIR      57  37  47 SW17      29.88R
RATON          FAIR      54  33  45 W8        29.77S
CLAYTON        FAIR      55  39  54 S15       29.73R

$$
NMZ532>537-210300-
EASTCENTRAL PLAINS

CITY           SKY/WX    TMP DP  RH WIND       PRES   REMARKS
SANTA ROSA     FAIR      67  45  44 S16G24    29.80S
TUCUMCARI      FAIR      65  48  54 S9        29.74R
CANNON AFB     FAIR      67  54  63 S16       29.84R
CLOVIS AIRPORT FAIR      63  51  65 S13       29.83F

$$
NMZ028-029-538-210300-
SOUTHEAST PLAINS

CITY           SKY/WX    TMP DP  RH WIND       PRES   REMARKS
ROSWELL        FAIR      63  46  54 SW7       29.82R
ARTESIA        FAIR      64  52  63 MISG      29.84S
CARLSBAD       FAIR      66  58  75 SW3       29.83R
HOBBS          FAIR      64  55  72 S9        29.87R


$$




USA.gov is the U.S. government's official web portal to all federal, state and local government web resources and services.